CFG7DW LEPA-EDDH

Flight info

Callsign CFG7DW
Flight time 2h 16m
Altitude 36000
Route MEROS N853 LUMAS DCT MAXIR DCT LUSOL DCT BODRU DCT OKTET DCT IRMAR DCT KINES DCT VANAS DCT MOBLO DCT UBIMA DCT SOSAL DCT KORED DCT BERSU N871 DITON/N0449F370 DCT LOKTA DCT TEDGO DCT HAREM DCT LOHRE DCT ELNAT/N0446F360 P605 NOLGO NOLGO6A
Aircraft A320/M-SDGHIJ1RWXY/LB1

Departure

Time 2026-05-06 12:29
Airport Palma de Mallorca Airport (LEPA)

Arrival

Time 2026-05-06 14:45
Airport Hamburg Helmut Schmidt Airport (EDDH)
Time Latitude Longitude Altitude Speed Heading
2026-05-06 11:46 39.55002 2.73725 39 ft 0 kts 239°
2026-05-06 12:20 39.55010 2.73744 35 ft 4 kts 239°
2026-05-06 12:20 39.55024 2.73775 38 ft 4 kts 239°
2026-05-06 12:20 39.55035 2.73800 35 ft 4 kts 250°
2026-05-06 12:21 39.55038 2.73832 34 ft 4 kts 291°
2026-05-06 12:21 39.55023 2.73860 35 ft 4 kts 320°
2026-05-06 12:21 39.55007 2.73875 38 ft 0 kts 329°
2026-05-06 12:23 39.55008 2.73874 37 ft 2 kts 329°
2026-05-06 12:23 39.55054 2.73838 38 ft 13 kts 328°
2026-05-06 12:24 39.55125 2.73782 38 ft 11 kts 336°
2026-05-06 12:24 39.55184 2.73815 38 ft 9 kts 33°
2026-05-06 12:24 39.55234 2.73802 37 ft 7 kts 328°
2026-05-06 12:24 39.55277 2.73767 38 ft 10 kts 328°
2026-05-06 12:25 39.55366 2.73696 38 ft 18 kts 328°
2026-05-06 12:25 39.55475 2.73611 38 ft 19 kts 330°
2026-05-06 12:25 39.55588 2.73521 38 ft 20 kts 327°
2026-05-06 12:25 39.55688 2.73567 38 ft 16 kts 57°
2026-05-06 12:26 39.55726 2.73648 37 ft 15 kts 58°
2026-05-06 12:26 39.55776 2.73757 36 ft 13 kts 60°
2026-05-06 12:26 39.55820 2.73853 38 ft 12 kts 57°
2026-05-06 12:26 39.55862 2.73937 38 ft 10 kts 57°
2026-05-06 12:27 39.55901 2.74014 37 ft 12 kts 57°
2026-05-06 12:27 39.55963 2.74142 38 ft 21 kts 59°
2026-05-06 12:27 39.56049 2.74336 38 ft 24 kts 58°
2026-05-06 12:27 39.56168 2.74439 38 ft 21 kts 342°
2026-05-06 12:28 39.56246 2.74317 38 ft 18 kts 244°
2026-05-06 12:28 39.56162 2.74118 38 ft 49 kts 238°
2026-05-06 12:28 39.55865 2.73507 37 ft 111 kts 238°
2026-05-06 12:28 39.55373 2.72469 41 ft 158 kts 237°
2026-05-06 12:29 39.54817 2.71298 753 ft 143 kts 240°
2026-05-06 12:29 39.54328 2.70229 1390 ft 137 kts 232°
2026-05-06 12:29 39.53680 2.69167 1786 ft 156 kts 225°
2026-05-06 12:29 39.52943 2.68263 2624 ft 139 kts 217°
2026-05-06 12:30 39.52252 2.67301 3011 ft 161 kts 239°
2026-05-06 12:30 39.51719 2.65982 3524 ft 175 kts 244°
2026-05-06 12:30 39.51162 2.64459 3616 ft 204 kts 243°
2026-05-06 12:30 39.50498 2.62759 3887 ft 222 kts 242°
2026-05-06 12:31 39.49661 2.61018 4358 ft 233 kts 226°
2026-05-06 12:31 39.48265 2.59792 4634 ft 256 kts 207°
2026-05-06 12:31 39.46629 2.58715 5220 ft 267 kts 207°
2026-05-06 12:31 39.44959 2.57634 6043 ft 270 kts 206°
2026-05-06 12:32 39.43235 2.56714 6830 ft 274 kts 193°
2026-05-06 12:32 39.41326 2.56629 7595 ft 279 kts 170°
2026-05-06 12:32 39.39532 2.57596 8345 ft 286 kts 144°
2026-05-06 12:32 39.38210 2.59538 9074 ft 294 kts 118°
2026-05-06 12:33 39.37685 2.62130 9795 ft 301 kts 90°
2026-05-06 12:33 39.37860 2.64823 10273 ft 314 kts 83°
2026-05-06 12:33 39.38112 2.67733 10449 ft 337 kts 83°
2026-05-06 12:33 39.38380 2.70829 10685 ft 355 kts 84°
2026-05-06 12:34 39.38651 2.74042 11252 ft 363 kts 84°
2026-05-06 12:34 39.38918 2.77303 11888 ft 368 kts 84°
2026-05-06 12:34 39.39186 2.80623 12531 ft 373 kts 85°
2026-05-06 12:34 39.39456 2.83969 13160 ft 378 kts 85°
2026-05-06 12:35 39.39732 2.87371 13778 ft 382 kts 85°
2026-05-06 12:35 39.40011 2.90808 14339 ft 387 kts 85°
2026-05-06 12:35 39.40290 2.94285 14790 ft 391 kts 85°
2026-05-06 12:35 39.40568 2.97799 14916 ft 393 kts 85°
2026-05-06 12:36 39.40844 3.01309 14959 ft 393 kts 85°
2026-05-06 12:36 39.41120 3.04832 14959 ft 393 kts 85°
2026-05-06 12:36 39.41393 3.08339 14958 ft 394 kts 85°
2026-05-06 12:36 39.41668 3.11882 14958 ft 395 kts 85°
2026-05-06 12:37 39.41942 3.15408 14956 ft 395 kts 85°
2026-05-06 12:37 39.42217 3.18943 14956 ft 395 kts 85°
2026-05-06 12:37 39.42519 3.22475 14957 ft 395 kts 81°
2026-05-06 12:37 39.43198 3.25924 14958 ft 396 kts 70°
2026-05-06 12:38 39.44343 3.29161 14959 ft 396 kts 59°
2026-05-06 12:38 39.45768 3.32228 15125 ft 399 kts 58°
2026-05-06 12:38 39.47199 3.35316 15749 ft 401 kts 58°
2026-05-06 12:38 39.48635 3.38434 16320 ft 405 kts 59°
2026-05-06 12:39 39.50082 3.41595 16873 ft 409 kts 59°
2026-05-06 12:39 39.51536 3.44777 17416 ft 413 kts 59°
2026-05-06 12:39 39.53007 3.47992 17969 ft 417 kts 59°
2026-05-06 12:39 39.54494 3.51239 18455 ft 421 kts 59°
2026-05-06 12:40 39.55997 3.54522 18929 ft 425 kts 59°
2026-05-06 12:40 39.57509 3.57829 19392 ft 429 kts 59°
2026-05-06 12:40 39.59035 3.61168 19862 ft 432 kts 59°
2026-05-06 12:40 39.60573 3.64536 20328 ft 436 kts 59°
2026-05-06 12:41 39.62125 3.67935 20798 ft 440 kts 59°
2026-05-06 12:41 39.63688 3.71369 21256 ft 443 kts 59°
2026-05-06 12:41 39.65259 3.74826 21705 ft 447 kts 59°
2026-05-06 12:41 39.66843 3.78316 22143 ft 451 kts 59°
2026-05-06 12:42 39.68440 3.81838 22568 ft 454 kts 60°
2026-05-06 12:42 39.70041 3.85376 22995 ft 457 kts 60°
2026-05-06 12:42 39.71663 3.88957 23407 ft 460 kts 60°
2026-05-06 12:42 39.73292 3.92550 23760 ft 464 kts 60°
2026-05-06 12:43 39.74934 3.96177 24114 ft 467 kts 60°
2026-05-06 12:43 39.76580 3.99817 24452 ft 469 kts 60°
2026-05-06 12:43 39.78234 4.03494 24785 ft 471 kts 60°
2026-05-06 12:43 39.79885 4.07178 25110 ft 474 kts 60°
2026-05-06 12:44 39.81553 4.10897 25426 ft 476 kts 60°
2026-05-06 12:44 39.83416 4.14465 25736 ft 478 kts 50°
2026-05-06 12:44 39.85716 4.17597 26044 ft 479 kts 39°
2026-05-06 12:44 39.88380 4.20191 26338 ft 478 kts 29°
2026-05-06 12:45 39.91324 4.22173 26633 ft 476 kts 18°
2026-05-06 12:45 39.94469 4.23494 26931 ft 473 kts
2026-05-06 12:45 40.00950 4.25043 27514 ft 476 kts
2026-05-06 12:46 40.04216 4.25805 27793 ft 478 kts
2026-05-06 12:46 40.07533 4.26584 28075 ft 480 kts
2026-05-06 12:46 40.10832 4.27366 28348 ft 482 kts
2026-05-06 12:46 40.14146 4.28152 28619 ft 484 kts
2026-05-06 12:47 40.17420 4.28926 28879 ft 485 kts
2026-05-06 12:47 40.20749 4.29711 29111 ft 488 kts
2026-05-06 12:47 40.24094 4.30501 29342 ft 490 kts
2026-05-06 12:47 40.27461 4.31295 29572 ft 491 kts
2026-05-06 12:48 40.30824 4.32091 29802 ft 493 kts
2026-05-06 12:48 40.34207 4.32893 30020 ft 495 kts
2026-05-06 12:48 40.37598 4.33702 30223 ft 495 kts
2026-05-06 12:48 40.40988 4.34512 30511 ft 495 kts
2026-05-06 12:49 40.44372 4.35320 30725 ft 496 kts
2026-05-06 12:49 40.47780 4.36134 30968 ft 495 kts
2026-05-06 12:49 40.51161 4.36939 31218 ft 495 kts
2026-05-06 12:49 40.54554 4.37744 31476 ft 494 kts
2026-05-06 12:50 40.57931 4.38544 31734 ft 494 kts
2026-05-06 12:50 40.61316 4.39351 31983 ft 493 kts
2026-05-06 12:50 40.64689 4.40160 32247 ft 493 kts
2026-05-06 12:50 40.68068 4.40974 32503 ft 492 kts
2026-05-06 12:51 40.71428 4.41782 32761 ft 492 kts
2026-05-06 12:51 40.74795 4.42591 33011 ft 491 kts
2026-05-06 12:51 40.78158 4.43401 33272 ft 490 kts
2026-05-06 12:51 40.81512 4.44208 33526 ft 490 kts
2026-05-06 12:52 40.84865 4.45014 33785 ft 490 kts
2026-05-06 12:52 40.88218 4.45824 34004 ft 490 kts
2026-05-06 12:52 40.91567 4.46634 34209 ft 490 kts
2026-05-06 12:52 40.94921 4.47445 34421 ft 490 kts
2026-05-06 12:53 40.98276 4.48256 34630 ft 489 kts
2026-05-06 12:53 41.01623 4.49067 34832 ft 489 kts
2026-05-06 12:53 41.04967 4.49879 35064 ft 489 kts
2026-05-06 12:53 41.08310 4.50692 35221 ft 489 kts
2026-05-06 12:54 41.11667 4.51508 35392 ft 489 kts
2026-05-06 12:54 41.15007 4.52319 35568 ft 489 kts
2026-05-06 12:54 41.18352 4.53134 35741 ft 489 kts
2026-05-06 12:54 41.21700 4.53953 35916 ft 488 kts
2026-05-06 12:55 41.25035 4.54772 35963 ft 488 kts
2026-05-06 12:55 41.31726 4.56411 35972 ft 488 kts
2026-05-06 12:56 41.38414 4.58045 35966 ft 489 kts
2026-05-06 12:56 41.45119 4.59692 35972 ft 490 kts
2026-05-06 12:57 41.51819 4.61346 35965 ft 490 kts
2026-05-06 12:57 41.58533 4.63003 35966 ft 490 kts
2026-05-06 12:58 41.65241 4.64661 35968 ft 491 kts
2026-05-06 12:58 41.71931 4.66567 35986 ft 496 kts 13°
2026-05-06 12:59 41.78169 4.70548 35973 ft 504 kts 28°
2026-05-06 12:59 41.84174 4.75394 35965 ft 504 kts 28°
2026-05-06 13:00 41.90207 4.80238 35980 ft 505 kts 28°
2026-05-06 13:00 41.96230 4.85081 35971 ft 505 kts 28°
2026-05-06 13:01 42.02262 4.89950 35963 ft 505 kts 28°
2026-05-06 13:01 42.08280 4.94829 35960 ft 505 kts 28°
2026-05-06 13:02 42.14348 4.99769 35961 ft 506 kts 28°
2026-05-06 13:02 42.20337 5.04645 35955 ft 507 kts 28°
2026-05-06 13:03 42.26378 5.09556 35951 ft 507 kts 28°
2026-05-06 13:03 42.32407 5.14495 35969 ft 507 kts 28°
2026-05-06 13:04 42.38427 5.19440 35964 ft 507 kts 28°
2026-05-06 13:04 42.44482 5.24409 35961 ft 507 kts 28°
2026-05-06 13:05 42.50509 5.29378 35992 ft 507 kts 28°
2026-05-06 13:05 42.55564 5.33548 35953 ft 507 kts 28°
2026-05-06 13:06 42.61593 5.38524 35940 ft 508 kts 28°
2026-05-06 13:06 42.67631 5.43532 35943 ft 508 kts 28°
2026-05-06 13:07 42.73667 5.48556 35945 ft 509 kts 28°
2026-05-06 13:07 42.79700 5.53583 35946 ft 509 kts 28°
2026-05-06 13:08 42.85743 5.58625 35947 ft 509 kts 28°
2026-05-06 13:08 42.91782 5.63665 35965 ft 509 kts 29°
2026-05-06 13:09 42.97813 5.68723 35960 ft 509 kts 29°
2026-05-06 13:09 43.03839 5.73792 35926 ft 509 kts 29°
2026-05-06 13:10 43.09865 5.78866 35940 ft 509 kts 29°
2026-05-06 13:10 43.15896 5.83953 35937 ft 509 kts 29°
2026-05-06 13:11 43.21885 5.89029 35923 ft 509 kts 29°
2026-05-06 13:11 43.27938 5.94161 35941 ft 508 kts 29°
2026-05-06 13:12 43.33907 5.99236 35925 ft 508 kts 29°
2026-05-06 13:12 43.40297 6.03307 35904 ft 499 kts 12°
2026-05-06 13:13 43.47014 6.04799 35898 ft 489 kts 358°
2026-05-06 13:13 43.53818 6.05462 35913 ft 490 kts 359°
2026-05-06 13:14 43.60608 6.06162 35899 ft 490 kts 359°
2026-05-06 13:14 43.67447 6.06867 35911 ft 489 kts 359°
2026-05-06 13:15 43.74195 6.07628 35898 ft 492 kts
2026-05-06 13:15 43.80793 6.10317 35866 ft 501 kts 22°
2026-05-06 13:16 43.87082 6.14629 35897 ft 503 kts 24°
2026-05-06 13:16 43.93366 6.18908 35891 ft 503 kts 23°
2026-05-06 13:17 43.99664 6.23187 35895 ft 504 kts 23°
2026-05-06 13:17 44.05950 6.27492 35922 ft 504 kts 24°
2026-05-06 13:18 44.12253 6.31830 35916 ft 505 kts 24°
2026-05-06 13:18 44.18545 6.36168 35913 ft 505 kts 24°
2026-05-06 13:19 44.24834 6.40512 35927 ft 505 kts 24°
2026-05-06 13:19 44.31132 6.44878 35924 ft 505 kts 24°
2026-05-06 13:20 44.37423 6.49241 35888 ft 506 kts 24°
2026-05-06 13:20 44.43741 6.53617 35923 ft 506 kts 24°
2026-05-06 13:21 44.50034 6.58011 35911 ft 506 kts 24°
2026-05-06 13:21 44.56326 6.62416 35913 ft 506 kts 24°
2026-05-06 13:22 44.62620 6.66811 35916 ft 505 kts 24°
2026-05-06 13:22 44.68905 6.71218 35878 ft 505 kts 24°
2026-05-06 13:23 44.75189 6.75626 35879 ft 504 kts 21°
2026-05-06 13:23 44.81859 6.78351 35895 ft 496 kts
2026-05-06 13:24 44.88668 6.78474 35881 ft 488 kts 352°
2026-05-06 13:24 44.95449 6.78017 35875 ft 487 kts 352°
2026-05-06 13:25 45.02225 6.77579 35895 ft 488 kts 352°
2026-05-06 13:25 45.09003 6.77132 35884 ft 488 kts 353°
2026-05-06 13:26 45.15796 6.76685 35904 ft 488 kts 352°
2026-05-06 13:26 45.22533 6.76234 35927 ft 488 kts 353°
2026-05-06 13:27 45.29315 6.75779 35926 ft 488 kts 353°
2026-05-06 13:27 45.36085 6.75332 35929 ft 488 kts 353°
2026-05-06 13:28 45.42873 6.74885 35941 ft 489 kts 353°
2026-05-06 13:28 45.49664 6.74425 35929 ft 488 kts 353°
2026-05-06 13:29 45.56445 6.73956 35938 ft 488 kts 353°
2026-05-06 13:29 45.63222 6.73493 35947 ft 487 kts 353°
2026-05-06 13:30 45.69998 6.73025 35962 ft 487 kts 353°
2026-05-06 13:30 45.76768 6.72559 35956 ft 487 kts 353°
2026-05-06 13:31 45.83530 6.72093 35957 ft 486 kts 353°
2026-05-06 13:31 45.90282 6.71626 35972 ft 486 kts 353°
2026-05-06 13:32 45.97029 6.71169 35962 ft 485 kts 353°
2026-05-06 13:32 46.03776 6.70711 35962 ft 485 kts 353°
2026-05-06 13:33 46.10516 6.70355 35949 ft 487 kts 359°
2026-05-06 13:33 46.17205 6.72042 35947 ft 491 kts 14°
2026-05-06 13:34 46.23808 6.74839 35934 ft 491 kts 14°
2026-05-06 13:34 46.30325 6.77588 35930 ft 491 kts 14°
2026-05-06 13:35 46.36876 6.80365 35919 ft 490 kts 14°
2026-05-06 13:35 46.43421 6.83151 35920 ft 491 kts 15°
2026-05-06 13:36 46.49969 6.85974 35885 ft 492 kts 18°
2026-05-06 13:36 46.56017 6.90560 35887 ft 493 kts 37°
2026-05-06 13:37 46.60876 6.97543 35897 ft 492 kts 52°
2026-05-06 13:37 46.65187 7.05304 35889 ft 493 kts 52°
2026-05-06 13:38 46.69489 7.13071 35896 ft 493 kts 53°
2026-05-06 13:38 46.73783 7.20861 35900 ft 493 kts 53°
2026-05-06 13:39 46.78076 7.28674 35904 ft 493 kts 53°
2026-05-06 13:39 46.82365 7.36496 35873 ft 493 kts 53°
2026-05-06 13:40 46.86652 7.44325 35874 ft 494 kts 53°
2026-05-06 13:40 46.90934 7.52184 35878 ft 494 kts 53°
2026-05-06 13:41 46.95208 7.60062 35891 ft 494 kts 53°
2026-05-06 13:41 46.99477 7.67945 35892 ft 494 kts 53°
2026-05-06 13:42 47.03747 7.75853 35903 ft 494 kts 53°
2026-05-06 13:42 47.08001 7.83761 35893 ft 494 kts 53°
2026-05-06 13:43 47.12246 7.91678 35895 ft 493 kts 53°
2026-05-06 13:43 47.16080 7.99999 35878 ft 491 kts 60°
2026-05-06 13:44 47.19705 8.08499 35863 ft 491 kts 60°
2026-05-06 13:44 47.23329 8.17017 35860 ft 491 kts 60°
2026-05-06 13:45 47.26926 8.25491 35856 ft 491 kts 60°
2026-05-06 13:45 47.31135 8.33491 35836 ft 494 kts 44°
2026-05-06 13:45 47.33782 8.36741 35830 ft 495 kts 34°
2026-05-06 13:46 47.39543 8.42311 35829 ft 496 kts 33°
2026-05-06 13:46 47.45312 8.47885 35874 ft 497 kts 33°
2026-05-06 13:47 47.51090 8.53492 35883 ft 497 kts 33°
2026-05-06 13:47 47.55897 8.58174 35892 ft 497 kts 33°
2026-05-06 13:48 47.61663 8.63814 35883 ft 497 kts 33°
2026-05-06 13:48 47.67424 8.69456 35869 ft 496 kts 33°
2026-05-06 13:49 47.73173 8.75092 35857 ft 495 kts 33°
2026-05-06 13:49 47.78925 8.80738 35833 ft 495 kts 33°
2026-05-06 13:50 47.84674 8.86414 35825 ft 495 kts 33°
2026-05-06 13:50 47.90383 8.92065 35788 ft 495 kts 33°
2026-05-06 13:51 47.96138 8.97774 35796 ft 494 kts 33°
2026-05-06 13:51 48.01858 9.03461 35803 ft 494 kts 33°
2026-05-06 13:52 48.07575 9.09172 35793 ft 494 kts 33°
2026-05-06 13:52 48.13326 9.14807 35790 ft 494 kts 28°
2026-05-06 13:53 48.19693 9.18541 35788 ft 490 kts 10°
2026-05-06 13:53 48.26348 9.19897 35775 ft 488 kts
2026-05-06 13:54 48.33183 9.21039 35774 ft 489 kts
2026-05-06 13:54 48.39939 9.22193 35769 ft 489 kts
2026-05-06 13:55 48.46700 9.23347 35771 ft 489 kts
2026-05-06 13:55 48.53461 9.24493 35789 ft 489 kts
2026-05-06 13:56 48.60229 9.25645 35794 ft 489 kts
2026-05-06 13:56 48.66917 9.26756 35796 ft 489 kts
2026-05-06 13:57 48.73769 9.27772 35804 ft 489 kts
2026-05-06 13:57 48.80542 9.28759 35801 ft 489 kts
2026-05-06 13:58 48.87324 9.29794 35783 ft 489 kts
2026-05-06 13:58 48.94089 9.30849 35785 ft 488 kts
2026-05-06 13:59 49.00761 9.31886 35772 ft 489 kts
2026-05-06 13:59 49.07497 9.32921 35771 ft 489 kts
2026-05-06 14:00 49.14290 9.33970 35774 ft 489 kts
2026-05-06 14:00 49.21062 9.35028 35785 ft 488 kts
2026-05-06 14:01 49.27820 9.36094 35787 ft 488 kts
2026-05-06 14:01 49.34583 9.37154 35811 ft 486 kts
2026-05-06 14:02 49.41287 9.38204 35815 ft 484 kts
2026-05-06 14:02 49.47971 9.39248 35814 ft 482 kts
2026-05-06 14:03 49.54643 9.40298 35809 ft 481 kts
2026-05-06 14:03 49.61303 9.41355 35811 ft 480 kts
2026-05-06 14:04 49.67928 9.42410 35805 ft 479 kts
2026-05-06 14:04 49.74553 9.43459 35801 ft 478 kts
2026-05-06 14:05 49.81167 9.44510 35835 ft 478 kts
2026-05-06 14:05 49.84470 9.45039 36054 ft 477 kts
2026-05-06 14:05 49.87755 9.45570 36254 ft 477 kts
2026-05-06 14:06 49.91075 9.46111 36441 ft 476 kts
2026-05-06 14:06 49.94372 9.46646 36595 ft 476 kts
2026-05-06 14:06 49.97664 9.47178 36745 ft 476 kts
2026-05-06 14:06 50.00962 9.47710 36768 ft 476 kts
2026-05-06 14:07 50.07539 9.48779 36763 ft 477 kts
2026-05-06 14:07 50.14171 9.49923 36758 ft 478 kts
2026-05-06 14:08 50.20781 9.51106 36759 ft 478 kts
2026-05-06 14:08 50.27371 9.52286 36754 ft 478 kts
2026-05-06 14:09 50.33986 9.53608 36742 ft 478 kts
2026-05-06 14:09 50.40590 9.55021 36742 ft 479 kts
2026-05-06 14:10 50.47193 9.56427 36738 ft 479 kts
2026-05-06 14:10 50.53799 9.57801 36749 ft 478 kts
2026-05-06 14:11 50.57095 9.58480 36458 ft 476 kts
2026-05-06 14:11 50.60370 9.59157 35918 ft 474 kts
2026-05-06 14:11 50.63635 9.59838 35707 ft 475 kts
2026-05-06 14:11 50.66925 9.60526 35745 ft 476 kts
2026-05-06 14:12 50.73500 9.61905 35744 ft 477 kts
2026-05-06 14:12 50.80079 9.63294 35740 ft 478 kts
2026-05-06 14:13 50.86657 9.64702 35160 ft 476 kts
2026-05-06 14:13 50.89930 9.65397 34836 ft 476 kts
2026-05-06 14:13 50.93235 9.66094 34707 ft 476 kts
2026-05-06 14:14 50.99805 9.67476 34746 ft 476 kts
2026-05-06 14:14 51.06355 9.68879 34751 ft 476 kts
2026-05-06 14:15 51.12926 9.70299 34758 ft 476 kts
2026-05-06 14:15 51.19496 9.71710 34759 ft 476 kts
2026-05-06 14:16 51.26065 9.73118 34754 ft 476 kts
2026-05-06 14:16 51.32617 9.74529 34754 ft 476 kts
2026-05-06 14:17 51.39178 9.75945 34770 ft 476 kts
2026-05-06 14:17 51.45742 9.77374 34779 ft 476 kts
2026-05-06 14:18 51.52304 9.78802 34772 ft 476 kts
2026-05-06 14:18 51.58853 9.80234 34772 ft 476 kts
2026-05-06 14:19 51.65392 9.81657 34784 ft 476 kts
2026-05-06 14:19 51.71951 9.83093 34786 ft 476 kts
2026-05-06 14:20 51.78510 9.84528 34797 ft 475 kts
2026-05-06 14:20 51.85067 9.85973 34796 ft 476 kts
2026-05-06 14:21 51.91622 9.87433 34815 ft 475 kts
2026-05-06 14:21 51.98167 9.88889 34817 ft 474 kts
2026-05-06 14:22 52.04706 9.90340 34811 ft 474 kts
2026-05-06 14:22 52.11234 9.91795 34818 ft 474 kts
2026-05-06 14:23 52.17765 9.93259 34818 ft 473 kts
2026-05-06 14:23 52.21019 9.93987 34645 ft 472 kts
2026-05-06 14:23 52.24277 9.94720 33974 ft 472 kts
2026-05-06 14:24 52.27525 9.95453 33187 ft 471 kts
2026-05-06 14:24 52.30775 9.96188 32397 ft 471 kts
2026-05-06 14:24 52.34010 9.96923 31688 ft 468 kts
2026-05-06 14:24 52.37204 9.97652 31198 ft 461 kts
2026-05-06 14:25 52.40359 9.98368 30688 ft 454 kts
2026-05-06 14:25 52.43469 9.99071 30177 ft 448 kts
2026-05-06 14:25 52.46541 9.99765 29630 ft 443 kts
2026-05-06 14:25 52.49574 10.00455 29026 ft 438 kts
2026-05-06 14:26 52.52583 10.01141 28454 ft 433 kts
2026-05-06 14:26 52.55544 10.01901 27881 ft 430 kts 12°
2026-05-06 14:26 52.58418 10.03143 27320 ft 426 kts 15°
2026-05-06 14:26 52.61269 10.04424 26763 ft 422 kts 17°
2026-05-06 14:27 52.64092 10.05684 26175 ft 419 kts 16°
2026-05-06 14:27 52.66894 10.06930 25621 ft 416 kts 16°
2026-05-06 14:27 52.69689 10.08176 25056 ft 414 kts 16°
2026-05-06 14:27 52.71526 10.08998 24697 ft 412 kts 16°
2026-05-06 14:28 52.74320 10.10252 24191 ft 409 kts 15°
2026-05-06 14:28 52.77073 10.11394 23656 ft 408 kts 10°
2026-05-06 14:28 52.79876 10.11854 23137 ft 405 kts
2026-05-06 14:28 52.82683 10.11938 22643 ft 402 kts
2026-05-06 14:29 52.85491 10.12024 21993 ft 404 kts
2026-05-06 14:29 52.88293 10.12113 21334 ft 407 kts
2026-05-06 14:29 52.91142 10.12207 20684 ft 410 kts
2026-05-06 14:29 52.94003 10.12305 20048 ft 412 kts
2026-05-06 14:30 52.96871 10.12404 19426 ft 413 kts
2026-05-06 14:30 52.99746 10.12503 18818 ft 413 kts
2026-05-06 14:30 53.02624 10.12602 18224 ft 413 kts
2026-05-06 14:30 53.05504 10.12698 17558 ft 413 kts
2026-05-06 14:31 53.08380 10.12789 16890 ft 413 kts
2026-05-06 14:31 53.11243 10.12879 16241 ft 412 kts
2026-05-06 14:31 53.14104 10.12974 15614 ft 411 kts
2026-05-06 14:31 53.16961 10.13071 14982 ft 410 kts
2026-05-06 14:32 53.19801 10.13167 14377 ft 408 kts
2026-05-06 14:32 53.22616 10.13258 13890 ft 403 kts
2026-05-06 14:32 53.25403 10.13345 13386 ft 397 kts
2026-05-06 14:32 53.28151 10.13437 12855 ft 392 kts
2026-05-06 14:33 53.30851 10.13531 12333 ft 384 kts
2026-05-06 14:33 53.33455 10.13617 11810 ft 363 kts
2026-05-06 14:33 53.35913 10.13673 11306 ft 345 kts
2026-05-06 14:33 53.38174 10.13100 10939 ft 338 kts 345°
2026-05-06 14:34 53.40380 10.11520 10550 ft 337 kts 330°
2026-05-06 14:34 53.42221 10.09128 10194 ft 334 kts 316°
2026-05-06 14:34 53.43768 10.06287 9850 ft 324 kts 314°
2026-05-06 14:34 53.45236 10.03556 9456 ft 308 kts 313°
2026-05-06 14:35 53.46648 10.00930 9056 ft 297 kts 314°
2026-05-06 14:35 53.47978 9.98381 8668 ft 285 kts 307°
2026-05-06 14:35 53.48730 9.95403 8274 ft 274 kts 278°
2026-05-06 14:35 53.48594 9.92307 7888 ft 262 kts 250°
2026-05-06 14:36 53.47702 9.89720 7515 ft 257 kts 228°
2026-05-06 14:36 53.46550 9.87419 7135 ft 257 kts 228°
2026-05-06 14:36 53.45404 9.85127 6764 ft 257 kts 228°
2026-05-06 14:36 53.44253 9.82824 6394 ft 257 kts 228°
2026-05-06 14:37 53.43106 9.80524 5984 ft 257 kts 228°
2026-05-06 14:37 53.41964 9.78233 5577 ft 256 kts 229°
2026-05-06 14:37 53.40819 9.75935 5202 ft 256 kts 229°
2026-05-06 14:37 53.39853 9.73434 4820 ft 271 kts 250°
2026-05-06 14:38 53.39639 9.70258 4459 ft 274 kts 280°
2026-05-06 14:38 53.40319 9.67366 4061 ft 261 kts 310°
2026-05-06 14:38 53.41649 9.65531 3671 ft 240 kts 342°
2026-05-06 14:38 53.43207 9.65164 3297 ft 220 kts 14°
2026-05-06 14:39 53.44643 9.65838 3016 ft 207 kts 23°
2026-05-06 14:39 53.45957 9.66611 3002 ft 197 kts 24°
2026-05-06 14:39 53.47215 9.67453 3000 ft 191 kts 35°
2026-05-06 14:39 53.48166 9.68921 3009 ft 188 kts 51°
2026-05-06 14:40 53.49007 9.70607 3002 ft 180 kts 52°
2026-05-06 14:40 53.49786 9.72169 3002 ft 171 kts 51°
2026-05-06 14:40 53.50535 9.73669 3028 ft 168 kts 51°
2026-05-06 14:40 53.51294 9.75188 3022 ft 168 kts 51°
2026-05-06 14:41 53.52040 9.76683 3005 ft 166 kts 51°
2026-05-06 14:41 53.52783 9.78173 2895 ft 166 kts 52°
2026-05-06 14:41 53.53521 9.79654 2706 ft 165 kts 51°
2026-05-06 14:41 53.54250 9.81116 2505 ft 163 kts 51°
2026-05-06 14:42 53.54966 9.82555 2290 ft 161 kts 51°
2026-05-06 14:42 53.55684 9.83996 2067 ft 155 kts 51°
2026-05-06 14:42 53.56346 9.85328 1858 ft 142 kts 50°
2026-05-06 14:42 53.56952 9.86546 1696 ft 135 kts 50°
2026-05-06 14:43 53.57546 9.87743 1502 ft 133 kts 50°
2026-05-06 14:43 53.58142 9.88942 1322 ft 132 kts 50°
2026-05-06 14:43 53.58724 9.90115 1121 ft 132 kts 51°
2026-05-06 14:43 53.59322 9.91319 920 ft 133 kts 50°
2026-05-06 14:44 53.59902 9.92490 731 ft 133 kts 51°
2026-05-06 14:44 53.60495 9.93687 552 ft 132 kts 51°
2026-05-06 14:44 53.61084 9.94874 367 ft 132 kts 49°
2026-05-06 14:45 53.62252 9.97234 56 ft 125 kts 49°
2026-05-06 14:45 53.62688 9.98127 42 ft 60 kts 51°
2026-05-06 14:45 53.62852 9.98460 44 ft 36 kts 48°
2026-05-06 14:45 53.63021 9.98791 45 ft 35 kts 51°
2026-05-06 14:46 53.63092 9.99130 46 ft 30 kts 94°
2026-05-06 14:46 53.63088 9.99349 45 ft 0 kts 66°
2026-05-06 14:46 53.63089 9.99355 45 ft 4 kts 66°
2026-05-06 14:47 53.63143 9.99497 46 ft 18 kts 51°
2026-05-06 14:47 53.63220 9.99664 48 ft 18 kts 46°
2026-05-06 14:47 53.63310 9.99828 48 ft 21 kts 51°
2026-05-06 14:47 53.63404 10.00018 48 ft 20 kts 49°
2026-05-06 14:48 53.63400 10.00163 48 ft 10 kts 169°
2026-05-06 14:48 53.63379 10.00165 46 ft 5 kts 160°
2026-05-06 14:48 53.63366 10.00228 48 ft 5 kts 79°
2026-05-06 14:48 53.63370 10.00290 48 ft 4 kts 86°
2026-05-06 14:49 53.63373 10.00358 48 ft 0 kts 85°
2026-05-06 14:49 53.63373 10.00346 47 ft 1 kts 85°
2026-05-06 14:49 53.63373 10.00345 46 ft 0 kts 85°